Regional Weather Roundup
Issued by NWS

Home | Current Version | Previous Version | Graphics & Text | Print | Product List | Glossary On
Versions: 1 2 3 4 5 6 7 8 9 10 11 12 13 14 15 16 17 18 19 20 21 22 23 24 25 26 27 28 29 30 31 32 33 34 35 36 37 38 39 40 41 42 43 44 45 46 47 48 49 50
000
ASUS45 KSLC 261110
RWRUT

UTAH REGIONAL WEATHER ROUNDUP
NATIONAL WEATHER SERVICE SALT LAKE CITY UT
400 AM MST THU FEB 26 2015

UTZ001>011-023>025-261200-

NORTHERN UTAH

CITY           SKY/WX    TMP DP  RH WIND       PRES   REMARKS
BRIGHAM CITY   CLOUDY    30  20  65 CALM      30.00F
HILL AFB       CLOUDY    33  17  51 SE12      29.98F WCI  24
LOGAN          CLEAR     28  22  78 NE5       29.99F WCI  23
OGDEN          CLOUDY    33  19  56 CALM      29.98F
PROVO AIRPORT  CLOUDY    30  19  64 SE3       30.00F
SALT LAKE CITY CLOUDY    33  21  61 E3        29.99F
VERNAL         CLOUDY    24  15  68 E3        30.05F
WENDOVER       CLOUDY    34  18  51 CALM      29.99F
HEBER CITY     CLOUDY    25  18  74 CALM      29.99F
WEST JORDAN    CLEAR     34  19  55 SW5       29.99F WCI  30

$$

UTZ012>022-026-027-261200-

SOUTHERN/CENTRAL UTAH

CITY           SKY/WX    TMP DP  RH WIND       PRES   REMARKS
BLANDING       PTCLDY    26  19  74 N7        30.07F WCI  18
BRYCE CANYON   PTCLDY     9   4  80 SW3       30.02F
CEDAR CITY     MOCLDY    33  18  53 NE7       29.97F WCI  27
DELTA          MOCLDY    25  14  61 S3        29.99F
HANKSVILLE     PTCLDY    32  27  80 N9        30.04S WCI  24
MILFORD        MOCLDY    27  17  66 SW9       29.99F WCI  18
MOAB/CYNLANDS  CLEAR     30  18  60 CALM      30.00F
PRICE          PTCLDY    25  10  53 N6        29.98F WCI  18
ST GEORGE      CLOUDY    41  28  60 S3        30.00S
KANAB          PTCLDY    27  21  80 NE6       30.04F WCI  20

$$

REGIONAL REPORTS     COLORADO/ARIZONA

CITY           SKY/WX    TMP DP  RH WIND       PRES   REMARKS
CRAIG, CO      NOT AVBL
GRAND JUNCTION CLEAR     20  16  84 E3        30.03S
RIFLE          CLEAR     20  14  77 E6        30.05F WCI  12
MONTROSE       CLEAR     18  14  84 S9        30.05F WCI   7
CORTEZ         CLEAR     21  18  88 E6        30.00S WCI  13
PAGE, AZ       PTCLDY    39  26  59 SE3       29.98F
GRAND CANYON   CLEAR     22  20  92 CALM      30.03F
KINGMAN        CLEAR     37  27  67 SE5       29.97F WCI  33
FLAGSTAFF      MOCLDY    26  17  68 CALM      30.04F

$$

REGIONAL REPORTS    NEVADA/IDAHO/WYOMING

CITY           SKY/WX    TMP DP  RH WIND       PRES   REMARKS
LAS VEGAS, NV  PTCLDY    49  32  52 S12       29.90F
ELY            CLOUDY    27   9  46 S10       30.01F WCI  17
ELKO           CLOUDY    36  30  79 NW8       30.03S WCI  30
POCATELLO, ID  MOCLDY    27  18  69 NE7       30.00F WCI  19
BURLEY         CLOUDY    32  21  64 CALM      29.98F
EVANSTON, WY   MOCLDY    21  15  78 E7        29.96F WCI  12
ROCK SPRINGS   CLOUDY    12   7  80 SE8       30.02F WCI   0

$$


USA.gov is the U.S. government's official web portal to all federal, state and local government web resources and services.